TimeMST,TemperatureF,Dew PointF,Humidity,Sea Level PressureIn,VisibilityMPH,Wind Direction,Wind SpeedMPH,Gust SpeedMPH,PrecipitationIn,Events,Conditions,WindDirDegrees,DateUTC
12:53 AM,36.0,10.9,36,29.92,10.0,WSW,6.9,-,N/A,,Clear,240,2013-01-07 07:53:00
1:53 AM,37.0,10.0,33,29.91,10.0,West,16.1,-,N/A,,Clear,260,2013-01-07 08:53:00
2:53 AM,35.1,10.0,35,29.91,10.0,West,10.4,-,N/A,,Clear,270,2013-01-07 09:53:00
3:53 AM,30.0,10.9,45,29.94,10.0,South,6.9,-,N/A,,Clear,190,2013-01-07 10:53:00
4:53 AM,34.0,9.0,35,29.97,10.0,NNW,10.4,-,N/A,,Clear,340,2013-01-07 11:53:00
5:53 AM,30.0,8.1,40,30.00,10.0,NNW,8.1,-,N/A,,Clear,340,2013-01-07 12:53:00
6:53 AM,28.0,10.0,47,30.04,10.0,Calm,Calm,-,N/A,,Clear,0,2013-01-07 13:53:00
7:53 AM,26.1,10.9,53,30.05,10.0,WNW,4.6,-,N/A,,Clear,290,2013-01-07 14:53:00
8:53 AM,25.0,10.9,55,30.09,10.0,NNE,3.5,-,N/A,,Clear,20,2013-01-07 15:53:00
9:53 AM,30.9,14.0,50,30.10,10.0,Calm,Calm,-,N/A,,Clear,0,2013-01-07 16:53:00
10:53 AM,39.9,12.0,32,30.02,10.0,Calm,Calm,-,N/A,,Clear,0,2013-01-07 17:53:00
12:53 PM,48.0,7.0,19,29.88,10.0,West,13.8,-,N/A,,Clear,260,2013-01-07 19:53:00
1:53 PM,48.9,7.0,18,29.86,10.0,West,12.7,-,N/A,,Clear,260,2013-01-07 20:53:00
2:53 PM,46.9,8.1,21,29.87,10.0,West,16.1,-,N/A,,Clear,270,2013-01-07 21:53:00
4:53 PM,41.0,12.0,31,29.85,10.0,West,15.0,20.7,N/A,,Clear,260,2013-01-07 23:53:00
5:53 PM,39.0,12.9,34,29.88,10.0,WSW,5.8,-,N/A,,Clear,250,2013-01-08 00:53:00
6:53 PM,37.0,12.9,37,29.88,10.0,SSW,5.8,-,N/A,,Clear,210,2013-01-08 01:53:00
7:53 PM,32.0,12.9,45,29.88,10.0,ESE,8.1,-,N/A,,Clear,120,2013-01-08 02:53:00
8:53 PM,27.0,17.1,66,29.89,10.0,ESE,3.5,-,N/A,,Clear,120,2013-01-08 03:53:00
9:53 PM,27.0,18.0,69,29.86,10.0,East,4.6,-,N/A,,Mostly Cloudy,100,2013-01-08 04:53:00
10:53 PM,28.0,18.0,66,29.82,10.0,Calm,Calm,-,N/A,,Mostly Cloudy,0,2013-01-08 05:53:00
11:53 PM,37.9,17.1,43,29.76,10.0,West,8.1,-,N/A,,Clear,260,2013-01-08 06:53:00